ABY115 OMAA-OMDB

Flight info

Callsign ABY115
Flight time 0h 27m
Altitude 9000
Route LORID
Aircraft A320/M-SDE3FGHIRWY/LB1

Departure

Time 2026-04-24 16:03
Airport Zayed International Airport (OMAA)

Arrival

Time 2026-04-24 16:30
Airport Dubai International Airport (OMDB)
Time Latitude Longitude Altitude Speed Heading
2026-04-24 15:50 24.42864 54.64820 103 ft 0 kts 232°
2026-04-24 15:52 24.42866 54.64823 103 ft 2 kts 232°
2026-04-24 15:52 24.42877 54.64839 103 ft 3 kts 232°
2026-04-24 15:52 24.42880 54.64842 103 ft 3 kts 232°
2026-04-24 15:55 24.42881 54.64845 103 ft 3 kts 232°
2026-04-24 15:55 24.42894 54.64862 103 ft 3 kts 232°
2026-04-24 15:55 24.42906 54.64880 103 ft 3 kts 232°
2026-04-24 15:55 24.42917 54.64895 103 ft 0 kts 232°
2026-04-24 15:56 24.42916 54.64893 103 ft 0 kts 232°
2026-04-24 15:57 24.42897 54.64899 103 ft 7 kts 123°
2026-04-24 15:57 24.42872 54.64992 103 ft 18 kts 114°
2026-04-24 15:57 24.42819 54.65085 103 ft 23 kts 127°
2026-04-24 15:57 24.42728 54.65218 103 ft 23 kts 127°
2026-04-24 15:59 24.42653 54.65326 103 ft 23 kts 127°
2026-04-24 15:59 24.42553 54.65461 103 ft 23 kts 129°
2026-04-24 15:59 24.42457 54.65594 103 ft 22 kts 128°
2026-04-24 15:59 24.42356 54.65736 103 ft 30 kts 128°
2026-04-24 16:00 24.42190 54.65970 103 ft 46 kts 128°
2026-04-24 16:00 24.42060 54.66154 103 ft 17 kts 128°
2026-04-24 16:00 24.41986 54.66258 103 ft 17 kts 128°
2026-04-24 16:00 24.41957 54.66333 103 ft 16 kts 84°
2026-04-24 16:01 24.42000 54.66449 103 ft 9 kts 70°
2026-04-24 16:01 24.42022 54.66516 103 ft 13 kts 72°
2026-04-24 16:01 24.42082 54.66621 103 ft 18 kts 34°
2026-04-24 16:01 24.42175 54.66687 103 ft 11 kts
2026-04-24 16:02 24.42215 54.66652 103 ft 7 kts 307°
2026-04-24 16:02 24.42306 54.66527 103 ft 45 kts 308°
2026-04-24 16:02 24.42640 54.66055 103 ft 111 kts 308°
2026-04-24 16:02 24.43236 54.65213 105 ft 167 kts 308°
2026-04-24 16:03 24.43973 54.64175 661 ft 174 kts 308°
2026-04-24 16:03 24.44716 54.63130 1546 ft 174 kts 308°
2026-04-24 16:03 24.45588 54.62199 2331 ft 182 kts 322°
2026-04-24 16:03 24.46677 54.61280 2795 ft 213 kts 322°
2026-04-24 16:04 24.47914 54.60221 3301 ft 239 kts 322°
2026-04-24 16:04 24.49267 54.59058 4119 ft 252 kts 322°
2026-04-24 16:04 24.50201 54.58251 4781 ft 256 kts 322°
2026-04-24 16:04 24.51614 54.57048 5903 ft 258 kts 322°
2026-04-24 16:05 24.54583 54.54706 8076 ft 264 kts 322°
2026-04-24 16:05 24.56098 54.53556 8874 ft 272 kts 322°
2026-04-24 16:06 24.59241 54.51176 9038 ft 272 kts 322°
2026-04-24 16:06 24.60732 54.49915 8993 ft 268 kts 315°
2026-04-24 16:06 24.63414 54.47131 8993 ft 267 kts 314°
2026-04-24 16:07 24.64922 54.45919 8976 ft 272 kts 331°
2026-04-24 16:07 24.66768 54.45520 8976 ft 281 kts 358°
2026-04-24 16:07 24.70433 54.47235 9026 ft 292 kts 26°
2026-04-24 16:08 24.72116 54.48408 8996 ft 294 kts 34°
2026-04-24 16:08 24.74488 54.51951 8996 ft 294 kts 63°
2026-04-24 16:09 24.76149 54.55994 8991 ft 286 kts 64°
2026-04-24 16:09 24.76954 54.57994 8990 ft 285 kts 64°
2026-04-24 16:09 24.77767 54.60014 9000 ft 292 kts 64°
2026-04-24 16:09 24.78595 54.62069 8998 ft 295 kts 64°
2026-04-24 16:10 24.82817 54.66391 8992 ft 282 kts
2026-04-24 16:11 24.86654 54.66048 9005 ft 278 kts 348°
2026-04-24 16:11 24.88581 54.65776 8993 ft 277 kts 348°
2026-04-24 16:11 24.90477 54.65500 8992 ft 278 kts 348°
2026-04-24 16:12 24.94318 54.66171 8982 ft 291 kts 26°
2026-04-24 16:12 24.96013 54.67401 9011 ft 293 kts 31°
2026-04-24 16:12 24.99330 54.69965 8994 ft 293 kts 32°
2026-04-24 16:13 25.01006 54.71272 8993 ft 293 kts 32°
2026-04-24 16:13 25.04327 54.73867 8994 ft 293 kts 32°
2026-04-24 16:14 25.07640 54.76459 8994 ft 293 kts 32°
2026-04-24 16:14 25.09323 54.77777 8994 ft 293 kts 32°
2026-04-24 16:14 25.12647 54.80388 8994 ft 293 kts 32°
2026-04-24 16:15 25.13743 54.81248 8994 ft 293 kts 32°
2026-04-24 16:15 25.17337 54.84658 8904 ft 300 kts 56°
2026-04-24 16:16 25.17802 54.89177 8427 ft 300 kts 101°
2026-04-24 16:16 25.17417 54.91417 8182 ft 298 kts 101°
2026-04-24 16:17 25.16435 54.98169 7985 ft 296 kts 98°
2026-04-24 16:17 25.15913 55.02669 7994 ft 297 kts 97°
2026-04-24 16:18 25.15423 55.07207 7994 ft 297 kts 97°
2026-04-24 16:18 25.14946 55.11719 7994 ft 297 kts 97°
2026-04-24 16:18 25.14718 55.13875 7994 ft 297 kts 97°
2026-04-24 16:19 25.14239 55.18427 7813 ft 300 kts 97°
2026-04-24 16:19 25.14003 55.20692 7408 ft 298 kts 97°
2026-04-24 16:20 25.13520 55.25232 6276 ft 295 kts 97°
2026-04-24 16:20 25.13033 55.29626 5927 ft 285 kts 96°
2026-04-24 16:20 25.12797 55.31786 5972 ft 285 kts 96°
2026-04-24 16:21 25.12334 55.36144 5991 ft 281 kts 96°
2026-04-24 16:21 25.12115 55.38216 5887 ft 265 kts 96°
2026-04-24 16:21 25.11906 55.40169 5734 ft 250 kts 96°
2026-04-24 16:22 25.11709 55.42025 5619 ft 234 kts 95°
2026-04-24 16:22 25.11354 55.45373 5396 ft 203 kts 97°
2026-04-24 16:22 25.11032 55.46828 5242 ft 190 kts 108°
2026-04-24 16:23 25.10434 55.48113 4942 ft 185 kts 118°
2026-04-24 16:23 25.09793 55.49341 4548 ft 186 kts 119°
2026-04-24 16:23 25.09134 55.50570 4191 ft 184 kts 120°
2026-04-24 16:24 25.07837 55.52973 3482 ft 179 kts 116°
2026-04-24 16:24 25.07717 55.54270 3227 ft 168 kts 78°
2026-04-24 16:24 25.08074 55.55474 2850 ft 168 kts 72°
2026-04-24 16:24 25.08473 55.56738 2251 ft 181 kts 62°
2026-04-24 16:25 25.09422 55.57653 1875 ft 180 kts 26°
2026-04-24 16:25 25.10579 55.57966 1858 ft 165 kts
2026-04-24 16:25 25.11684 55.57832 1939 ft 160 kts 345°
2026-04-24 16:26 25.13530 55.56598 2001 ft 154 kts 318°
2026-04-24 16:26 25.14264 55.55749 1982 ft 152 kts 311°
2026-04-24 16:26 25.15634 55.53699 2038 ft 176 kts 304°
2026-04-24 16:27 25.16315 55.52542 2013 ft 181 kts 302°
2026-04-24 16:27 25.16991 55.51358 2000 ft 185 kts 302°
2026-04-24 16:27 25.17675 55.50141 1997 ft 188 kts 301°
2026-04-24 16:27 25.18369 55.48896 1995 ft 190 kts 301°
2026-04-24 16:28 25.19076 55.47624 1838 ft 190 kts 301°
2026-04-24 16:28 25.19729 55.46448 1556 ft 174 kts 301°
2026-04-24 16:28 25.20936 55.44275 1049 ft 158 kts 301°
2026-04-24 16:29 25.21491 55.43276 859 ft 152 kts 301°
2026-04-24 16:29 25.22038 55.42289 653 ft 146 kts 301°
2026-04-24 16:29 25.23071 55.40427 278 ft 139 kts 301°
2026-04-24 16:30 25.24048 55.38666 49 ft 114 kts 301°
2026-04-24 16:30 25.24364 55.38096 49 ft 54 kts 301°
2026-04-24 16:30 25.24464 55.37915 49 ft 14 kts 301°
2026-04-24 16:31 25.24498 55.37854 49 ft 8 kts 301°
2026-04-24 16:31 25.24572 55.37721 49 ft 33 kts 301°
2026-04-24 16:31 25.24692 55.37506 49 ft 33 kts 301°
2026-04-24 16:31 25.24777 55.37277 49 ft 32 kts 269°
2026-04-24 16:32 25.24779 55.37114 49 ft 32 kts 276°
2026-04-24 16:32 25.24847 55.36839 49 ft 23 kts 277°
2026-04-24 16:32 25.24866 55.36725 49 ft 0 kts 298°
2026-04-24 16:33 25.24866 55.36724 49 ft 0 kts 298°
2026-04-24 16:35 25.24897 55.36659 49 ft 14 kts 298°
2026-04-24 16:35 25.24949 55.36579 49 ft 11 kts 302°
2026-04-24 16:35 25.24984 55.36506 49 ft 11 kts 291°
2026-04-24 16:35 25.24987 55.36428 49 ft 10 kts 292°
2026-04-24 16:36 25.25030 55.36369 49 ft 10 kts 313°
2026-04-24 16:36 25.25069 55.36312 49 ft 9 kts 306°
2026-04-24 16:36 25.25106 55.36257 49 ft 9 kts 309°
2026-04-24 16:36 25.25143 55.36206 49 ft 8 kts 306°
2026-04-24 16:37 25.25166 55.36167 49 ft 5 kts 303°
2026-04-24 16:37 25.25185 55.36134 49 ft 6 kts 301°
2026-04-24 16:37 25.25213 55.36084 49 ft 19 kts 301°
2026-04-24 16:37 25.25341 55.35853 49 ft 27 kts 301°
2026-04-24 16:38 25.25431 55.35691 49 ft 24 kts 301°
2026-04-24 16:38 25.25505 55.35550 49 ft 21 kts 302°
2026-04-24 16:38 25.25567 55.35443 49 ft 15 kts 301°
2026-04-24 16:38 25.25602 55.35378 49 ft 14 kts 301°
2026-04-24 16:39 25.25635 55.35317 49 ft 5 kts 301°
2026-04-24 16:39 25.25648 55.35293 49 ft 3 kts 301°
2026-04-24 16:39 25.25661 55.35270 49 ft 5 kts 301°
2026-04-24 16:39 25.25688 55.35223 49 ft 9 kts 302°
2026-04-24 16:40 25.25721 55.35163 49 ft 9 kts 302°
2026-04-24 16:40 25.25754 55.35103 49 ft 9 kts 301°
2026-04-24 16:40 25.25786 55.35044 49 ft 9 kts 301°
2026-04-24 16:40 25.25816 55.34989 49 ft 8 kts 301°
2026-04-24 16:41 25.25845 55.34935 49 ft 9 kts 301°
2026-04-24 16:41 25.25878 55.34877 49 ft 9 kts 301°
2026-04-24 16:41 25.25909 55.34819 49 ft 9 kts 301°
2026-04-24 16:41 25.25939 55.34765 49 ft 8 kts 301°
2026-04-24 16:42 25.25965 55.34718 49 ft 6 kts 301°
2026-04-24 16:42 25.25984 55.34685 49 ft 4 kts 301°
2026-04-24 16:42 25.25998 55.34660 49 ft 4 kts 301°
2026-04-24 16:42 25.26010 55.34637 49 ft 3 kts 301°
2026-04-24 16:43 25.26021 55.34617 49 ft 3 kts 300°
2026-04-24 16:43 25.26027 55.34594 49 ft 5 kts 275°
2026-04-24 16:43 25.25999 55.34541 49 ft 12 kts 208°
2026-04-24 16:43 25.25913 55.34488 49 ft 13 kts 211°
2026-04-24 16:44 25.25893 55.34474 49 ft 0 kts 211°
2026-04-24 16:44 25.25890 55.34472 49 ft 2 kts 211°
2026-04-24 16:44 25.25848 55.34441 49 ft 11 kts 225°
2026-04-24 16:45 25.25841 55.34365 49 ft 11 kts 297°
2026-04-24 16:45 25.25869 55.34307 49 ft 8 kts 307°
2026-04-24 16:45 25.25897 55.34259 49 ft 7 kts 302°
2026-04-24 16:45 25.25923 55.34214 49 ft 7 kts 302°
2026-04-24 16:46 25.25952 55.34157 49 ft 12 kts 300°
2026-04-24 16:46 25.25995 55.34075 49 ft 12 kts 300°
2026-04-24 16:46 25.26036 55.34007 49 ft 8 kts 336°
2026-04-24 16:46 25.26089 55.34014 49 ft 8 kts 24°
2026-04-24 16:47 25.26135 55.34040 49 ft 7 kts 28°
2026-04-24 16:47 25.26177 55.34065 49 ft 7 kts 28°
2026-04-24 16:47 25.26213 55.34089 49 ft 3 kts 32°
2026-04-24 16:47 25.26232 55.34103 49 ft 3 kts 32°
2026-04-24 16:48 25.26255 55.34122 49 ft 5 kts 46°
2026-04-24 16:48 25.26263 55.34159 49 ft 5 kts 98°
2026-04-24 16:48 25.26252 55.34195 49 ft 5 kts 117°
2026-04-24 16:48 25.26233 55.34234 49 ft 8 kts 118°
2026-04-24 16:49 25.26196 55.34307 49 ft 14 kts 120°
2026-04-24 16:49 25.26141 55.34408 49 ft 16 kts 122°
2026-04-24 16:49 25.26086 55.34504 49 ft 12 kts 122°
2026-04-24 16:49 25.26055 55.34576 49 ft 10 kts 94°
2026-04-24 16:50 25.26072 55.34617 49 ft 9 kts 41°
2026-04-24 16:50 25.26126 55.34686 49 ft 9 kts 50°
2026-04-24 16:50 25.26167 55.34739 49 ft 10 kts 46°
2026-04-24 16:50 25.26226 55.34773 49 ft 9 kts
2026-04-24 16:51 25.26276 55.34747 49 ft 7 kts 311°